Elmira, NY

4:17 PM EST on December 11, 2019 (GMT -0500)
Elmira-Corning Regional

Weather History for KELM - October, 2019

Change the Weather History Date:

Wednesday, October 30, 2019

  Actual Average Record
Temperature  
Mean Temperature 57 °F -  
Max Temperature 61 °F 53 °F 78 °F (1950)
Min Temperature 54 °F 31 °F 19 °F (1969)
Degree Days  
Heating Degree Days 8    
Growing Degree Days 7 (Base 50)    
Moisture  
Dew Point 53 °F    
Average Humidity 84    
Maximum Humidity 93    
Minimum Humidity 80    
Precipitation  
Precipitation 0.07 in - - ()
Sea Level Pressure  
Sea Level Pressure 30.17 in    
Wind  
Wind Speed 2 mph (SE)    
Max Wind Speed 7 mph    
Max Gust Speed -    
Visibility 10 miles    
Events Rain    
Averages and records for this station are not official NWS values.
T = Trace of Precipitation, MM = Missing Value Source: NWS Daily Summary

Daily Weather History Graph

Daily Weather History Graph

Search for Another Location

Airport or City:

Astronomy

Oct. 30, 2019 Rise Set
Actual Time 7:37 AM EDT 6:04 PM EDT
Civil Twilight 7:08 AM EDT 6:33 PM EDT
Nautical Twilight 6:35 AM EDT 7:05 PM EDT
Astronomical Twilight 6:03 AM EDT 7:38 PM EDT
Moon 10:20 AM EDT (10/30) 8:07 PM EDT (10/30)
Length of Visible Light 11h 24m
Length of Day
10h 26m
Waxing Crescent, 8% of the Moon is Illuminated
Oct 30
Waxing Crescent
Nov 4
First Quarter
Nov 12
Full
Nov 19
Last Quarter
Nov 26
New

Hourly Weather History & Observations

Time (EDT) Temp. Dew Point Humidity Pressure Visibility Wind Dir Wind Speed Gust Speed Precip Events Conditions
12:53 AM 55.9 °F 52.0 °F 87% 30.25 in 10.0 mi Calm Calm - N/A   Overcast
1:53 AM 55.0 °F 52.0 °F 89% 30.24 in 10.0 mi Calm Calm - N/A   Overcast
2:53 AM 55.9 °F 52.0 °F 87% 30.25 in 10.0 mi Calm Calm - N/A   Overcast
3:53 AM 55.9 °F 51.1 °F 84% 30.22 in 10.0 mi Calm Calm - N/A   Mostly Cloudy
4:53 AM 54.0 °F 52.0 °F 93% 30.24 in 10.0 mi Calm Calm - N/A   Overcast
5:53 AM 55.9 °F 52.0 °F 87% 30.24 in 10.0 mi SSE 3.5 mph - N/A   Overcast
6:53 AM 55.0 °F 52.0 °F 89% 30.25 in 10.0 mi Calm Calm - N/A   Overcast
7:53 AM 57.0 °F 52.0 °F 83% 30.26 in 10.0 mi Calm Calm - N/A   Overcast
8:53 AM 57.0 °F 53.1 °F 87% 30.25 in 10.0 mi Calm Calm - N/A   Overcast
9:53 AM 57.9 °F 53.1 °F 84% 30.26 in 10.0 mi NNE 3.5 mph - N/A   Overcast
10:53 AM 59.0 °F 53.1 °F 81% 30.25 in 10.0 mi East 3.5 mph - N/A   Overcast
11:53 AM 59.0 °F 53.1 °F 81% 30.24 in 10.0 mi Calm Calm - N/A   Overcast
12:53 PM 60.1 °F 54.0 °F 80% 30.22 in 10.0 mi SSE 6.9 mph - N/A   Overcast
1:53 PM 60.1 °F 54.0 °F 80% 30.19 in 10.0 mi SE 6.9 mph - N/A   Overcast
2:53 PM 60.1 °F 54.0 °F 80% 30.18 in 10.0 mi SSE 5.8 mph - N/A   Overcast
3:53 PM 59.0 °F 54.0 °F 83% 30.15 in 10.0 mi ESE 5.8 mph - N/A   Overcast
4:53 PM 59.0 °F 53.1 °F 81% 30.13 in 10.0 mi SE 6.9 mph - N/A   Overcast
5:53 PM 59.0 °F 53.1 °F 81% 30.12 in 10.0 mi SSW 4.6 mph - N/A   Overcast
6:53 PM 57.9 °F 53.1 °F 84% 30.12 in 10.0 mi Calm Calm - N/A   Overcast
7:53 PM 57.9 °F 53.1 °F 84% 30.09 in 10.0 mi SE 5.8 mph - N/A   Overcast
8:23 PM 57.9 °F 53.1 °F 84% 30.06 in 10.0 mi Variable 4.6 mph - N/A   Overcast
8:53 PM 57.9 °F 52.0 °F 81% 30.06 in 10.0 mi SE 3.5 mph - N/A   Mostly Cloudy
9:53 PM 59.0 °F 53.1 °F 81% 30.04 in 10.0 mi East 3.5 mph - N/A   Overcast
10:53 PM 59.0 °F 53.1 °F 81% 30.00 in 10.0 mi Calm Calm - 0.00 in Rain Light Rain
11:53 PM 57.0 °F 55.0 °F 93% 29.98 in 5.0 mi Calm Calm - 0.07 in Rain Light Rain